Location: Caltech
(34.1382°N, 118.1253°W)
Time: 03:49:30
(UTC-07:00)

ADEOS II - Visible Passes

Search period start: 30 August 2016 00:00
Search period end: 09 September 2016 00:00
Orbit: 799 x 802 km, 98.3° (Epoch: 30 August)

Date Brightness Start Highest point End Pass type
(mag) Time Alt. Az. Time Alt. Az. Time Alt. Az.
30 Aug 2.8 04:51:25 10° NNE 04:56:33 54° E 05:01:40 10° S visible
31 Aug 3.9 04:25:35 10° NE 04:30:07 29° E 04:34:38 10° SSE visible
01 Sep 4.7 04:00:28 10° NE 04:03:35 16° E 04:06:42 10° SE visible
01 Sep 2.3 05:38:28 10° N 05:43:33 51° WNW 05:48:36 10° SSW visible
02 Sep 2.1 05:11:59 10° NNE 05:17:16 88° ESE 05:22:32 10° SSW visible
03 Sep 3.0 04:45:50 10° NNE 04:50:55 47° E 04:55:57 10° S visible
04 Sep 4.1 04:20:06 10° NE 04:24:27 26° E 04:28:46 10° SSE visible
04 Sep 2.9 05:59:31 10° N 06:04:07 32° WNW 06:08:43 10° SW visible
05 Sep 4.8 03:55:15 10° ENE 03:57:54 14° E 04:00:32 10° ESE visible
05 Sep 2.2 05:32:46 10° N 05:37:56 57° WNW 05:43:03 10° SSW visible
06 Sep 2.2 05:06:21 10° NNE 05:11:38 78° ESE 05:16:53 10° S visible
07 Sep 3.2 04:40:16 10° NNE 04:45:15 42° E 04:50:12 10° S visible
08 Sep 4.2 04:14:39 10° NE 04:18:46 23° E 04:22:53 10° SSE visible
08 Sep 2.7 05:53:46 10° N 05:58:31 35° WNW 06:03:14 10° SW visible
